[[{"header":{"parameterUnit":"m.s-1","parameterCategory":1,"la1":30.2991,"la2":30.254,"lo1":-89.0895,"lo2":-89.0444,"dy":0.0017,"dx":0.0017,"nx":28,"ny":28,"refTime":"2024-03-30T03:00:00:Z","depth":0,"parameterNumber":2,"parameterNumberName":"U-component_of_WINDS"},"data":[0,0,0,0,0,0,0,0,0,0,0,0,0,0,0,0,0,0,0,0,0,0,0,0,0,0,0,0,0,0,0,0,0,0,0,0,0,0,0,0,0,0,0,0,0,0,0,0,0,0,0,0,0,0,0,0,0,0,-1.6344,-1.6346,0,-1.6556,-1.6558,-1.656,-1.6627,-1.6626,-1.6625,-1.6624,-1.6847,-1.6853,-1.686,0,0,0,0,0,0,0,0,0,0,0,0,0,-1.6004,-1.6009,-1.6343,-1.6346,-1.6349,-1.6555,-1.6558,-1.6561,-1.6627,-1.6626,-1.6625,-1.6624,-1.6844,-1.6852,-1.6861,0,0,0,0,0,0,0,0,0,0,0,0,0,-1.6177,-1.6011,-1.6343,-1.6407,-1.6414,-1.6555,-1.6558,-1.6562,-1.6628,-1.6626,-1.6625,-1.6623,-1.6842,-1.6852,-1.6862,-1.6955,0,0,-1.6893,-1.6898,0,0,0,0,0,0,0,0,-1.6167,-1.6189,-1.6395,-1.6402,-1.6411,-1.6563,-1.652,-1.6694,-1.6628,-1.6547,-1.6624,-1.6623,-1.6754,-1.6771,-1.6815,-1.6966,-1.6975,-1.6894,-1.69,-1.6905,-1.6908,0,0,0,0,0,0,0,-1.6155,-1.6181,-1.6428,-1.6398,-1.6408,-1.6427,-1.645,-1.6553,-1.6656,-1.6554,-1.6559,-1.6583,-1.6758,-1.6804,-1.682,-1.6979,-1.6894,-1.6903,-1.6909,-1.6913,-1.7221,-1.7223,0,0,0,0,0,0,-1.6131,-1.617,-1.6421,-1.6434,-1.6283,-1.6434,-1.646,-1.6516,-1.6655,-1.6675,-1.6584,-1.6585,-1.6788,-1.6808,-1.6828,-1.6949,-1.6905,-1.6914,-1.692,-1.7219,-1.7222,-1.7224,0,0,0,0,0,0,-1.6124,-1.6153,-1.6412,-1.6304,-1.6338,-1.6442,-1.6504,-1.6521,-1.6567,-1.6678,-1.6698,-1.6612,-1.6787,-1.6814,-1.6924,-1.6957,-1.6919,-1.6928,-1.7217,-1.722,-1.7223,-1.7189,0,0,0,0,0,0,-1.6114,-1.615,-1.6184,-1.6304,-1.6344,-1.6502,-1.6506,-1.6526,-1.6584,-1.6588,-1.6709,-1.6728,-1.6788,-1.6908,-1.6934,-1.6971,-1.6936,-1.7214,-1.7218,-1.7222,-1.7188,-1.7191,-1.7193,0,0,0,0,0,-1.6101,-1.6167,-1.6186,-1.6216,-1.6389,-1.6503,-1.6526,-1.6592,-1.6587,-1.6624,-1.6696,-1.6724,-1.695,-1.6919,-1.6948,-1.6989,-1.7212,-1.7217,-1.7221,-1.7186,-1.719,-1.7193,0,0,0,0,0,0,-1.605,-1.6184,-1.6206,-1.6312,-1.6396,-1.6514,-1.6563,-1.6594,-1.6682,-1.6682,-1.6762,-1.6789,-1.6893,-1.6953,-1.6916,-1.7089,-1.7083,-1.7093,-1.7046,-1.705,-1.7053,-1.7036,-1.6945,0,0,0,0,0,-1.6051,-1.6131,-1.6244,-1.6327,-1.6368,-1.6458,-1.651,-1.6554,-1.6645,-1.6681,-1.6761,-1.6849,-1.6941,-1.6999,-1.7089,-1.7197,-1.7226,-1.724,-1.7243,-1.7244,-1.7253,-1.7317,-1.7325,-1.7239,-1.7239,-1.7238,0,0,-1.6054,-1.6137,-1.6182,-1.6319,-1.6389,-1.6472,-1.6487,-1.6574,-1.6638,-1.6695,-1.6803,-1.6865,-1.697,-1.708,-1.7132,-1.7132,-1.7283,-1.725,-1.7251,-1.7258,-1.7322,-1.7331,-1.7338,-1.7242,-1.7241,-1.7241,0,0,-1.6101,-1.6171,-1.6249,-1.6319,-1.6424,-1.6485,-1.6503,-1.6618,-1.6661,-1.6771,-1.6817,-1.6895,-1.7049,-1.7122,-1.718,-1.7259,-1.7289,-1.7286,-1.73,-1.7362,-1.7368,-1.7375,-1.7404,-1.7414,-1.7294,-1.7294,-1.7294,0,-1.6092,-1.6217,-1.6285,-1.637,-1.643,-1.6485,-1.6566,-1.6631,-1.6762,-1.6803,-1.6801,-1.6998,-1.7072,-1.7201,-1.722,-1.7264,-1.729,-1.7272,-1.7361,-1.7369,-1.7376,-1.7405,-1.7416,-1.7293,-1.7293,-1.7293,-1.7293,0,-1.6201,-1.6287,-1.6338,-1.6461,-1.6527,-1.6609,-1.6692,-1.6751,-1.6791,-1.6852,-1.6965,-1.7056,-1.7166,-1.7201,-1.724,-1.7336,-1.7333,-1.7345,-1.7341,-1.7382,-1.7411,-1.7422,-1.7291,-1.7292,-1.7292,-1.7292,0,0,-1.622,-1.6381,-1.6399,-1.6456,-1.6578,-1.6648,-1.6735,-1.6841,-1.6891,-1.698,-1.7056,-1.7187,-1.72,-1.7265,-1.7314,-1.7368,-1.7427,-1.7374,-1.7378,-1.7381,-1.7541,-1.753,-1.7542,-1.7448,-1.745,-1.7452,-1.7532,0,-1.6284,-1.6438,-1.6503,-1.6629,-1.6711,-1.6766,-1.6842,-1.6927,-1.6987,-1.7068,-1.7136,-1.7228,-1.7237,-1.7277,-1.7333,-1.7407,-1.746,-1.7402,-1.7521,-1.7525,-1.7493,-1.7557,-1.7546,-1.7617,-1.7544,-1.7546,-1.7547,0,-1.6378,-1.6466,-1.6599,-1.6713,-1.6751,-1.6817,-1.6922,-1.6997,-1.7096,-1.7136,-1.721,-1.7257,-1.7353,-1.7342,-1.7477,-1.7437,-1.749,-1.7534,-1.7539,-1.7552,-1.7538,-1.7573,-1.7641,-1.7652,-1.7565,-1.7564,-1.7563,0,-1.638,-1.6532,-1.6632,-1.668,-1.6815,-1.6861,-1.692,-1.7017,-1.7078,-1.717,-1.7211,-1.7314,-1.737,-1.745,-1.7524,-1.751,-1.7653,-1.7648,-1.7691,-1.7689,-1.7718,-1.7715,-1.7796,-1.7752,-1.7752,-1.7751,-1.7751,0,-1.6444,-1.6523,-1.6635,-1.6696,-1.6788,-1.6864,-1.6954,-1.7017,-1.7104,-1.718,-1.7236,-1.7307,-1.74,-1.7485,-1.7544,-1.7647,-1.7673,-1.771,-1.7724,-1.7705,-1.77,-1.774,-1.7737,-1.7754,-1.7754,-1.7753,-1.7753,0,-1.646,-1.6538,-1.6651,-1.677,-1.6802,-1.6865,-1.6968,-1.7032,-1.7096,-1.7192,-1.722,-1.7321,-1.7423,-1.7505,-1.7639,-1.7679,-1.7788,-1.7804,-1.7754,-1.7761,-1.78,-1.7795,-1.7909,-1.7929,-1.7871,-1.7871,-1.7872,0,-1.6496,-1.6558,-1.6684,-1.6739,-1.6797,-1.6884,-1.6947,-1.7026,-1.7089,-1.7207,-1.7257,-1.7363,-1.7452,-1.7613,-1.77,-1.7804,-1.7823,-1.7856,-1.7839,-1.7818,-1.7825,-1.782,-1.7828,-1.7858,-1.7858,-1.7858,-1.7858,0,-1.6551,-1.6587,-1.6673,-1.6775,-1.6847,-1.6931,-1.7016,-1.7059,-1.7154,-1.7223,-1.7327,-1.7396,-1.7533,-1.7638,-1.7751,-1.7815,-1.7854,-1.7863,-1.7879,-1.7859,-1.7827,-1.7846,-1.7759,-1.786,-1.786,-1.786,-1.786,-1.786,-1.6579,-1.6638,-1.6736,-1.6832,-1.6904,-1.6983,-1.7049,-1.7121,-1.7209,-1.7325,-1.7368,-1.7476,-1.7576,-1.7732,-1.7797,-1.7884,-1.7887,-1.7909,-1.7915,-1.7919,-1.7917,-1.7813,-1.7905,-1.7905,-1.7905,-1.7905,-1.7905,0,-1.6638,-1.6704,-1.6791,-1.6909,-1.6985,-1.7013,-1.711,-1.7172,-1.7265,-1.7355,-1.7442,-1.7563,-1.7666,-1.7762,-1.7871,-1.7922,-1.7943,-1.7948,-1.7945,-1.796,-1.7908,-1.7884,-1.793,-1.793,-1.793,-1.793,-1.793,-1.793,-1.6677,-1.6778,-1.6826,-1.6966,-1.7033,-1.7137,-1.719,-1.7265,-1.7337,-1.7469,-1.7555,-1.7616,-1.7709,-1.7825,-1.7922,-1.7948,-1.7986,-1.7987,-1.8017,-1.7967,-1.7963,-1.796,-1.7937,-1.7994,-1.7994,-1.8062,-1.8063,-1.8063]},{"header":{"parameterUnit":"m.s-1","parameterCategory":1,"la1":30.2991,"la2":30.254,"lo1":-89.0895,"lo2":-89.0444,"dy":0.0017,"dx":0.0017,"nx":28,"ny":28,"refTime":"2024-03-30T03:00:00:Z","depth":0,"parameterNumber":3,"parameterNumberName":"V-component_of_WINDS"},"data":[0,0,0,0,0,0,0,0,0,0,0,0,0,0,0,0,0,0,0,0,0,0,0,0,0,0,0,0,0,0,0,0,0,0,0,0,0,0,0,0,0,0,0,0,0,0,0,0,0,0,0,0,0,0,0,0,0,0,1.4417,1.4418,0,1.4488,1.4489,1.449,1.457,1.4571,1.4572,1.4573,1.4646,1.4646,1.4647,0,0,0,0,0,0,0,0,0,0,0,0,0,1.4357,1.4358,1.4417,1.4418,1.4419,1.4488,1.4489,1.449,1.4569,1.4571,1.4572,1.4574,1.4645,1.4646,1.4647,0,0,0,0,0,0,0,0,0,0,0,0,0,1.4401,1.4358,1.4417,1.4467,1.4472,1.4488,1.4489,1.449,1.4569,1.4571,1.4573,1.4574,1.4645,1.4646,1.4647,1.4619,0,0,1.4651,1.4652,0,0,0,0,0,0,0,0,1.4398,1.4403,1.4459,1.4464,1.447,1.4522,1.4494,1.4533,1.4569,1.4532,1.4573,1.4575,1.4603,1.4608,1.4617,1.4623,1.4626,1.4651,1.4652,1.4653,1.4653,0,0,0,0,0,0,0,1.4395,1.4401,1.4445,1.446,1.4466,1.4488,1.4496,1.4502,1.4557,1.4536,1.4542,1.4549,1.4606,1.4616,1.4619,1.4627,1.4651,1.4652,1.4653,1.4654,1.462,1.4619,0,0,0,0,0,0,1.4384,1.4397,1.4443,1.4447,1.4438,1.4488,1.4497,1.4503,1.4557,1.4567,1.4547,1.4552,1.4613,1.4618,1.4622,1.4597,1.4653,1.4654,1.4654,1.4622,1.462,1.4618,0,0,0,0,0,0,1.4383,1.4387,1.444,1.4424,1.4433,1.4487,1.4493,1.4504,1.4513,1.4566,1.4576,1.4547,1.4614,1.4621,1.4621,1.4601,1.4654,1.4655,1.4624,1.4621,1.4619,1.4544,0,0,0,0,0,0,1.438,1.4386,1.4374,1.4423,1.4433,1.4436,1.4492,1.4504,1.4515,1.4522,1.4568,1.4577,1.4616,1.4619,1.4622,1.4603,1.4656,1.4626,1.4623,1.462,1.4548,1.4539,1.4531,0,0,0,0,0,1.4378,1.4349,1.4373,1.4378,1.4419,1.4434,1.444,1.4486,1.4513,1.4503,1.4538,1.4576,1.4602,1.4618,1.4623,1.4604,1.4627,1.4624,1.462,1.4552,1.4541,1.4532,0,0,0,0,0,0,1.4295,1.4356,1.4384,1.4369,1.4396,1.4448,1.4436,1.4471,1.4491,1.4497,1.4553,1.4563,1.4558,1.4581,1.4597,1.4583,1.4621,1.4618,1.4568,1.4558,1.4549,1.4544,1.4657,0,0,0,0,0,1.4275,1.4281,1.4335,1.4317,1.433,1.4381,1.4389,1.4422,1.4452,1.4464,1.4499,1.4527,1.4543,1.4551,1.4568,1.4553,1.4566,1.4543,1.4534,1.4527,1.4524,1.4523,1.4515,1.4606,1.4606,1.4606,0,0,1.4233,1.4268,1.4268,1.4302,1.4326,1.4334,1.4389,1.4393,1.4401,1.4465,1.4468,1.4495,1.4531,1.4525,1.4524,1.4544,1.4502,1.4522,1.4516,1.4517,1.4519,1.451,1.4502,1.4604,1.4604,1.4605,0,0,1.4162,1.4187,1.4178,1.4203,1.4241,1.4276,1.4274,1.4322,1.4343,1.4348,1.4398,1.4408,1.4432,1.4457,1.4473,1.4419,1.4456,1.4423,1.4378,1.4377,1.437,1.4364,1.4348,1.4341,1.442,1.442,1.442,0,1.4106,1.4118,1.4169,1.4172,1.4187,1.4248,1.4241,1.4263,1.4304,1.4314,1.4337,1.4373,1.44,1.4404,1.4392,1.4401,1.4404,1.4418,1.4367,1.4361,1.4356,1.4342,1.4336,1.4416,1.4416,1.4417,1.4417,0,1.405,1.4058,1.4046,1.4086,1.4101,1.4098,1.4151,1.416,1.4194,1.4228,1.4235,1.4272,1.43,1.4303,1.4335,1.4313,1.4325,1.4356,1.4395,1.4343,1.4331,1.4325,1.441,1.4411,1.4413,1.4414,0,0,1.3924,1.3997,1.3992,1.4014,1.4063,1.4071,1.4074,1.4103,1.4111,1.4139,1.4145,1.4167,1.4199,1.4217,1.4253,1.4252,1.4212,1.4284,1.4286,1.4272,1.4196,1.4173,1.4165,1.4238,1.4237,1.4236,1.4194,0,1.3863,1.3871,1.392,1.3915,1.3926,1.3987,1.3991,1.4023,1.4056,1.4072,1.4109,1.4126,1.4163,1.4176,1.4177,1.4216,1.4198,1.422,1.4246,1.4246,1.4236,1.4158,1.4133,1.409,1.4189,1.4188,1.4187,0,1.3792,1.3819,1.3815,1.387,1.3877,1.3878,1.3912,1.3925,1.3965,1.399,1.4014,1.4056,1.4066,1.4103,1.412,1.4134,1.4148,1.417,1.417,1.4174,1.4214,1.4163,1.4078,1.4072,1.418,1.418,1.4181,0,1.3705,1.374,1.3744,1.376,1.3823,1.3824,1.385,1.3892,1.3908,1.3938,1.395,1.398,1.3997,1.4021,1.4071,1.4093,1.4084,1.4124,1.4107,1.4106,1.4102,1.4102,1.402,1.4109,1.4109,1.4109,1.4109,0,1.3633,1.3629,1.3706,1.3708,1.3708,1.3766,1.3764,1.3797,1.3835,1.3847,1.3902,1.3912,1.3978,1.3997,1.4036,1.4047,1.4053,1.4076,1.4087,1.4072,1.4069,1.4082,1.4087,1.4107,1.4108,1.4108,1.4108,0,1.3534,1.3585,1.3594,1.3655,1.3671,1.3668,1.3722,1.3728,1.3767,1.3782,1.3789,1.385,1.3876,1.3929,1.3968,1.3996,1.3998,1.4016,1.3984,1.3991,1.3973,1.3975,1.3897,1.3892,1.3982,1.3981,1.398,0,1.3485,1.3484,1.3547,1.3559,1.3584,1.3603,1.3621,1.368,1.3697,1.3746,1.3747,1.3778,1.3806,1.3845,1.3894,1.3926,1.3946,1.3918,1.3951,1.3938,1.395,1.3949,1.3952,1.3909,1.3908,1.3907,1.3906,0,1.3394,1.3421,1.3444,1.3478,1.3499,1.3528,1.3561,1.3568,1.3636,1.3653,1.3681,1.3702,1.3746,1.3777,1.3818,1.3847,1.3889,1.3896,1.3894,1.3879,1.3862,1.3874,1.3966,1.3897,1.3898,1.3898,1.3899,1.3899,1.332,1.3325,1.3371,1.3397,1.3428,1.3459,1.347,1.3512,1.3536,1.3576,1.3611,1.3637,1.3683,1.3742,1.377,1.3793,1.3813,1.381,1.3809,1.3808,1.3803,1.3858,1.3801,1.3801,1.3801,1.3802,1.3802,0,1.3234,1.3268,1.3292,1.3338,1.3359,1.3398,1.3438,1.3454,1.3477,1.3516,1.3544,1.3579,1.3611,1.3664,1.3702,1.371,1.3731,1.3718,1.3719,1.3726,1.3781,1.378,1.3701,1.3701,1.3701,1.3701,1.3701,1.3701,1.3192,1.3203,1.3236,1.3265,1.33,1.3326,1.3347,1.3377,1.3409,1.3446,1.3474,1.3509,1.3556,1.3598,1.363,1.3646,1.3658,1.364,1.3661,1.3712,1.3721,1.373,1.373,1.3641,1.3641,1.3604,1.3604,1.3603]}]]